This demonstration page uses our WeatherBlox Daily Observations layout. Learn more.

38.89511, -77.03637

Hourly Observations for June 21, 2015

Temp ( °F °C ) Dew Point ( °F °C ) Humidity (%) Winds ( mph kmh ) Pressure ( in mb ) Visibility ( mi km ) Precip ( " mm )
1:25 am 01:25 Cloudy with Light Rain 75 24 72 22 89 89 S 7 11 29.77 1008 10 16.09344 0.001 0.001
1:34 am 01:34 Cloudy 75 24 72 22 89 89 S 10 17 29.77 1008 10 16.09344 0.001 0.001
1:42 am 01:42 Cloudy 75 24 72 22 89 89 S 9 15 29.74 1007 10 16.09344 0 0
1:52 am 01:52 Cloudy 75 24 72 22 89 89 SSW 6 9 29.74 1007 10 16.09344 0.001 0.001
2:31 am 02:31 Cloudy 77 25 72 22 83 83 S 7 11 29.74 1007 10 16.09344 0 0
2:52 am 02:52 Cloudy 77 25 72 22 83 83 SSW 7 11 29.74 1007 10 16.09344 0 0
3:52 am 03:52 Cloudy with Light Rain 75 24 72 22 89 89 W 5 7 29.74 1007 5 8.04672 0.001 0.001
4:23 am 04:23 Cloudy with Light Rain 75 24 72 22 89 89 W 6 9 29.74 1007 10 16.09344 0.03 0.762
4:52 am 04:52 Cloudy with Light Rain 75 24 72 22 89 89 W 6 9 29.74 1007 10 16.09344 0.03 0.762
4:58 am 04:58 Cloudy with Light Rain 75 24 72 22 89 89 WSW 3 6 29.74 1007 10 16.09344 0 0
5:37 am 05:37 Cloudy 75 24 72 22 89 89 W 6 9 29.77 1008 10 16.09344 0.001 0.001
5:52 am 05:52 Cloudy with Light Rain 77 25 72 22 83 83 WNW 7 11 29.77 1008 10 16.09344 0.001 0.001
6:52 am 06:52 Mostly Cloudy 77 25 72 22 83 83 W 7 11 29.8 1009 10 16.09344 0.001 0.001
7:52 am 07:52 Mostly Cloudy 79 26 72 22 79 79 W 8 13 29.83 1010 10 16.09344 0 0
8:52 am 08:52 Partly Cloudy 82 28 70 21 66 66 WNW 12 19 29.83 1010 10 16.09344 0 0
9:52 am 09:52 Mostly Cloudy 84 29 70 21 62 62 NW 15 24 29.83 1010 10 16.09344 0 0
10:52 am 10:52 Partly Cloudy 88 31 70 21 55 55 W 9 15 29.83 1010 10 16.09344 0 0
11:52 am 11:52 Mostly Cloudy 90 32 70 21 52 52 W 13 20 29.85 1011 10 16.09344 0 0
12:52 pm 12:52 Mostly Cloudy 91 33 70 21 49 49 W 15 24 29.85 1011 10 16.09344 0 0
1:52 pm 13:52 Mostly Cloudy 91 33 70 21 49 49 W 13 20 29.85 1011 10 16.09344 0 0
2:52 pm 14:52 Mostly Cloudy 93 34 70 21 47 47 WSW 8 13 29.83 1010 10 16.09344 0 0
3:52 pm 15:52 Mostly Cloudy 93 34 70 21 47 47 WSW 10 17 29.85 1011 10 16.09344 0 0
4:52 pm 16:52 Mostly Cloudy 93 34 72 22 49 49 WSW 10 17 29.83 1010 10 16.09344 0 0
5:52 pm 17:52 Mostly Cloudy 91 33 72 22 52 52 WSW 10 17 29.83 1010 10 16.09344 0 0
6:52 pm 18:52 Mostly Cloudy 91 33 72 22 52 52 SW 10 17 29.83 1010 10 16.09344 0 0
7:52 pm 19:52 Mostly Cloudy 90 32 72 22 55 55 WSW 12 19 29.85 1011 10 16.09344 0 0
8:52 pm 20:52 Mostly Cloudy 90 32 72 22 55 55 W 7 11 29.85 1011 10 16.09344 0 0
9:52 pm 21:52 Mostly Cloudy 88 31 72 22 59 59 WNW 7 11 29.88 1012 10 16.09344 0 0
10:52 pm 22:52 Mostly Cloudy 86 30 72 22 62 62 NNW 7 11 29.88 1012 10 16.09344 0 0
11:52 pm 23:52 Mostly Cloudy 88 31 66 19 49 49 NW 10 17 29.91 1013 10 16.09344 0 0

Powered by AerisWeather